FW1396 Weather Reports


Display with metric or nautical units.
time (UTC)temp
F
wind
direction
speed
MPH
gust
MPH
rain 1hr
in
rain 24hr
in
rain mn
in
humidity
%
barometer
mb
20260509115047 53 298 2.0 3.0 0.01 0.09 0.02 96 993.3
20260509114547 53 298 1.0 3.0 0.01 0.09 0.02 96 993.3
20260509114316 53 298 2.0 3.0 0.01 0.09 0.02 96 993.2
20260509113545 53 230 2.0 3.0 0.01 0.09 0.02 96 993.1
20260509113317 53 230 1.0 2.0 0.00 0.08 0.01 96 993.0
20260509112546 53 230 1.0 2.0 0.00 0.08 0.01 96 992.9
20260509112045 53 230 0.0 2.0 0.00 0.08 0.01 96 992.9
20260509111546 54 230 1.0 2.0 0.00 0.08 0.01 96 993.0
20260509111045 54 230 1.0 2.0 0.00 0.08 0.01 96 993.0
20260509110545 54 230 0.0 1.0 0.00 0.08 0.01 96 992.8
20260509110045 54 230 0.0 1.0 0.00 0.08 0.01 95 992.7
20260509105545 54 230 0.0 1.0 0.00 0.08 0.01 95 992.8
20260509105045 54 230 0.0 2.0 0.00 0.08 0.01 95 992.8
20260509104545 54 230 1.0 2.0 0.00 0.08 0.01 95 992.8
20260509104318 54 230 1.0 2.0 0.00 0.08 0.01 95 992.8
20260509103545 54 230 0.0 2.0 0.00 0.08 0.01 95 992.7
20260509103043 54 230 0.0 1.0 0.00 0.08 0.01 95 992.7
20260509102548 54 230 0.0 2.0 0.00 0.08 0.01 95 992.7
20260509102045 54 230 0.0 2.0 0.00 0.08 0.01 95 992.7
20260509101544 54 230 0.0 2.0 0.00 0.08 0.01 95 992.5
20260509101045 54 230 1.0 2.0 0.00 0.08 0.01 95 992.7
20260509100543 54 230 0.0 1.0 0.00 0.08 0.01 95 992.8
20260509100045 55 230 0.0 1.0 0.00 0.08 0.01 95 992.8
20260509095543 55 230 0.0 1.0 0.00 0.08 0.01 95 992.8
20260509095315 55 230 0.0 1.0 0.00 0.08 0.01 95 992.9
20260509094544 55 230 0.0 2.0 0.00 0.08 0.01 95 993.0
20260509094043 55 230 0.0 2.0 0.00 0.08 0.01 95 993.1
20260509093542 55 230 1.0 2.0 0.00 0.08 0.01 95 992.9
20260509093043 55 230 0.0 1.0 0.00 0.08 0.01 94 993.0
20260509092543 55 230 0.0 1.0 0.00 0.08 0.01 94 993.0
20260509091543 56 90 0.0 1.0 0.00 0.08 0.01 95 993.0
20260509091043 56 90 0.0 1.0 0.00 0.08 0.01 95 993.0
20260509090814 56 90 0.0 1.0 0.00 0.08 0.01 95 992.9
20260509090047 56 90 0.0 2.0 0.00 0.08 0.01 95 992.7
20260509085542 56 90 0.0 2.0 0.00 0.08 0.01 95 992.5
20260509085042 56 90 0.0 1.0 0.00 0.08 0.01 94 992.5
20260509084543 56 90 1.0 1.0 0.00 0.08 0.01 94 992.4
20260509084042 56 90 1.0 1.0 0.00 0.08 0.01 94 992.4
20260509083542 56 90 0.0 0.0 0.00 0.08 0.01 94 992.4
20260509083042 56 90 0.0 0.0 0.00 0.08 0.01 94 992.5
20260509082542 56 90 0.0 0.0 0.00 0.08 0.01 94 992.4
20260509082042 56 90 0.0 0.0 0.00 0.08 0.01 94 992.4
20260509081541 56 90 0.0 2.0 0.00 0.08 0.01 94 992.3
20260509081041 56 90 0.0 2.0 0.00 0.08 0.01 94 992.3
20260509080541 56 90 1.0 2.0 0.00 0.08 0.01 94 992.1
20260509080044 57 90 0.0 2.0 0.00 0.08 0.01 94 992.2
20260509075540 57 90 1.0 2.0 0.00 0.08 0.01 94 992.1
20260509075040 57 90 0.0 1.0 0.00 0.08 0.01 94 992.2
20260509074541 57 90 0.0 1.0 0.00 0.08 0.01 94 992.3
20260509074041 57 90 0.0 1.0 0.00 0.08 0.01 93 992.2
20260509073541 57 90 0.0 0.0 0.00 0.08 0.01 93 992.3
20260509073041 57 90 0.0 0.0 0.00 0.08 0.01 93 992.3
20260509072539 57 90 0.0 0.0 0.00 0.08 0.01 93 992.3
20260509072041 57 90 0.0 1.0 0.00 0.08 0.01 93 992.3
20260509071538 57 90 0.0 1.0 0.00 0.08 0.01 93 992.3
20260509071041 57 90 0.0 1.0 0.00 0.08 0.01 93 992.2
20260509070540 57 90 0.0 1.0 0.00 0.08 0.01 92 992.2
20260509070313 58 90 0.0 0.0 0.00 0.08 0.01 92 992.3
20260509065541 58 90 0.0 1.0 0.00 0.08 0.01 92 992.2
20260509065041 58 90 0.0 1.0 0.00 0.08 0.01 92 992.2
20260509064538 58 90 0.0 1.0 0.00 0.08 0.01 92 992.3
20260509064040 58 90 0.0 1.0 0.00 0.08 0.01 92 992.3
20260509063537 58 90 0.0 0.0 0.00 0.08 0.01 91 992.5
20260509063039 59 90 0.0 2.0 0.00 0.08 0.01 91 992.5
20260509062539 59 90 0.0 2.0 0.00 0.08 0.01 91 992.6
20260509062038 59 90 1.0 2.0 0.00 0.08 0.01 91 992.5
20260509061540 59 90 0.0 2.0 0.00 0.08 0.01 91 992.6
20260509061310 59 90 0.0 0.0 0.00 0.08 0.01 91 992.6
20260509060538 59 90 0.0 0.0 0.01 0.08 0.01 91 992.6
20260509055539 59 90 0.0 0.0 0.02 0.08 0.01 89 992.6
20260509055038 59 90 0.0 0.0 0.08 0.08 0.01 89 992.8
20260509054538 60 90 0.0 0.0 0.08 0.08 0.01 89 993.0
20260509054037 60 90 0.0 0.0 0.08 0.08 0.01 89 993.1
20260509053538 60 90 0.0 1.0 0.08 0.08 0.01 88 993.1
20260509053039 60 90 0.0 1.0 0.08 0.08 0.01 88 993.0
20260509052538 60 90 0.0 0.0 0.08 0.08 0.01 87 993.1
20260509052036 60 90 0.0 3.0 0.08 0.08 0.01 87 993.3
20260509051537 61 90 1.0 4.0 0.08 0.08 0.01 87 993.3
20260509051038 61 85 2.0 4.0 0.08 0.08 0.01 86 993.6
20260509050538 63 188 4.0 4.0 0.07 0.07 0.00 77 993.2
20260509050036 63 188 4.0 7.0 0.07 0.07 0.00 77 992.4
20260509045536 63 248 5.0 7.0 0.06 0.06 0.06 77 993.0
20260509045035 67 176 3.0 5.0 0.00 0.00 0.00 65 993.9
20260509044536 67 176 3.0 6.0 0.00 0.00 0.00 65 993.9
20260509043307 67 275 4.0 7.0 0.00 0.00 0.00 65 991.4
20260509042535 67 248 4.0 7.0 0.00 0.00 0.00 65 991.7
20260509042034 67 268 4.0 10.0 0.00 0.00 0.00 65 991.6
20260509041535 67 250 6.0 10.0 0.00 0.00 0.00 65 991.4
20260509041035 67 234 5.0 7.0 0.00 0.00 0.00 65 991.4
20260509040535 67 245 5.0 9.0 0.00 0.00 0.00 65 991.5
20260509040035 67 268 5.0 9.0 0.00 0.00 0.00 65 991.5
20260509035540 67 252 5.0 6.0 0.00 0.00 0.00 66 991.6
20260509035306 67 257 4.0 7.0 0.00 0.00 0.00 66 991.6
20260509034804 67 251 4.0 9.0 0.00 0.00 0.00 66 991.5
20260509034033 67 259 6.0 10.0 0.00 0.00 0.00 65 991.7
20260509033804 67 244 4.0 10.0 0.00 0.00 0.00 65 991.8
20260509033032 67 247 5.0 7.0 0.00 0.00 0.00 65 991.9
20260509032804 67 247 6.0 9.0 0.00 0.00 0.00 65 991.9
20260509032034 67 233 6.0 13.0 0.00 0.00 0.00 65 991.9
20260509031532 67 255 6.0 13.0 0.00 0.00 0.00 65 991.8
20260509031034 67 258 4.0 7.0 0.00 0.00 0.00 65 991.9
20260509030534 67 210 5.0 12.0 0.00 0.00 0.00 65 991.7
20260509030306 67 251 7.0 12.0 0.00 0.00 0.00 64 991.9
20260509025533 67 243 7.0 12.0 0.00 0.00 0.00 65 991.9
20260509025032 67 216 6.0 12.0 0.00 0.00 0.00 65 991.8
20260509024534 68 265 8.0 12.0 0.00 0.00 0.00 64 991.7
20260509024031 68 259 7.0 12.0 0.00 0.00 0.00 65 991.7
20260509023531 68 227 6.0 12.0 0.00 0.00 0.00 65 991.6
20260509023033 68 254 6.0 10.0 0.00 0.00 0.00 65 991.7
20260509022532 68 202 4.0 9.0 0.00 0.00 0.00 65 991.8
20260509022032 68 235 6.0 9.0 0.00 0.00 0.00 65 991.8
20260509021531 68 200 4.0 5.0 0.00 0.00 0.00 66 991.9
20260509021032 68 250 4.0 5.0 0.00 0.00 0.00 65 991.9
20260509020532 68 247 4.0 5.0 0.00 0.00 0.00 64 992.1
20260509020032 69 252 3.0 5.0 0.00 0.00 0.00 64 992.2
20260509015801 69 252 3.0 5.0 0.00 0.00 0.00 64 992.2
20260509015030 69 234 3.0 5.0 0.00 0.00 0.00 64 992.3
20260509014802 69 251 2.0 4.0 0.00 0.00 0.00 64 992.3
20260509014030 69 281 2.0 3.0 0.00 0.00 0.00 63 992.2
20260509013530 69 240 1.0 3.0 0.00 0.00 0.00 63 992.1
20260509013029 69 240 1.0 3.0 0.00 0.00 0.00 63 992.1
20260509012529 70 252 4.0 5.0 0.00 0.00 0.00 62 992.1
20260509012028 70 252 4.0 5.0 0.00 0.00 0.00 62 992.0
20260509011528 70 244 1.0 3.0 0.00 0.00 0.00 61 992.0
20260509011258 70 245 2.0 6.0 0.00 0.00 0.00 61 992.0
20260509010525 70 245 2.0 6.0 0.00 0.00 0.00 61 991.9
20260509010025 70 250 5.0 6.0 0.00 0.00 0.00 61 991.8
20260509005526 71 254 4.0 6.0 0.00 0.00 0.00 60 991.7
20260509005026 71 235 4.0 7.0 0.00 0.00 0.00 60 991.7
20260509004525 71 245 5.0 7.0 0.00 0.00 0.00 59 991.7
20260509003527 71 245 4.0 9.0 0.00 0.00 0.00 59 991.5
20260509003025 72 269 5.0 7.0 0.00 0.00 0.00 58 991.4
20260509002525 72 188 4.0 7.0 0.00 0.00 0.00 59 991.2
20260509002027 72 209 4.0 7.0 0.00 0.00 0.00 59 991.1
20260509001525 73 235 6.0 12.0 0.00 0.00 0.00 59 991.2
20260509001025 73 228 7.0 12.0 0.00 0.00 0.00 58 991.3
20260509000525 73 223 5.0 9.0 0.00 0.00 0.00 58 991.4
20260509000025 74 247 6.0 9.0 0.00 0.00 0.00 57 991.4
20260508235524 74 247 6.0 12.0 0.00 0.00 0.00 57 991.4
20260508235023 74 238 6.0 12.0 0.00 0.00 0.00 57 991.4
20260508234524 74 221 9.0 12.0 0.00 0.00 0.00 56 991.5
20260508234023 75 244 6.0 12.0 0.00 0.00 0.00 56 991.4
20260508233525 75 257 7.0 12.0 0.00 0.00 0.00 56 991.5
20260508233022 75 204 6.0 11.0 0.00 0.00 0.00 56 991.6
20260508232522 75 210 5.0 11.0 0.00 0.00 0.00 55 991.7
20260508232023 75 261 7.0 11.0 0.00 0.00 0.00 54 991.8
20260508231522 75 252 6.0 9.0 0.00 0.00 0.00 54 991.8
20260508230522 76 250 7.0 13.0 0.00 0.00 0.00 55 992.0
20260508230021 76 202 4.0 13.0 0.00 0.00 0.00 54 992.0
20260508225522 76 223 6.0 13.0 0.00 0.00 0.00 54 992.1
20260508225253 76 254 5.0 10.0 0.00 0.00 0.00 52 992.1
20260508224523 76 207 6.0 10.0 0.00 0.00 0.00 51 992.1
20260508224021 76 259 3.0 11.0 0.00 0.00 0.00 51 992.1
20260508223522 76 248 6.0 11.0 0.00 0.00 0.00 53 992.1
20260508223020 76 250 7.0 11.0 0.00 0.00 0.00 52 991.9
20260508222521 76 254 7.0 11.0 0.00 0.00 0.00 51 992.0
20260508221519 76 252 7.0 10.0 0.00 0.00 0.00 50 991.9
20260508221020 76 264 5.0 12.0 0.00 0.00 0.00 52 991.9
20260508220521 76 226 7.0 12.0 0.00 0.00 0.00 52 992.0
20260508220020 76 244 5.0 10.0 0.00 0.00 0.00 51 992.0
20260508215520 76 262 5.0 11.0 0.00 0.00 0.00 52 992.1
20260508215021 76 257 8.0 11.0 0.00 0.00 0.00 52 992.1
20260508214750 76 264 6.0 10.0 0.00 0.00 0.00 51 992.2
20260508214019 76 259 4.0 9.0 0.00 0.00 0.00 50 992.2
20260508213750 76 269 4.0 6.0 0.00 0.00 0.00 52 992.2
20260508213250 76 200 5.0 7.0 0.00 0.00 0.00 52 992.3
20260508212518 76 200 5.0 10.0 0.00 0.00 0.00 52 992.3
20260508212018 76 274 3.0 11.0 0.00 0.00 0.00 52 992.4
20260508211518 76 266 6.0 11.0 0.00 0.00 0.00 54 992.5
20260508211018 76 244 5.0 11.0 0.00 0.00 0.00 53 992.6
20260508210518 76 226 5.0 13.0 0.00 0.00 0.00 50 992.6
20260508210016 76 243 10.0 13.0 0.00 0.00 0.00 51 992.6
20260508205749 76 252 8.0 13.0 0.00 0.00 0.00 52 992.7
20260508205019 76 262 6.0 13.0 0.00 0.00 0.00 52 992.6
20260508204517 76 210 5.0 11.0 0.00 0.00 0.00 51 992.8
20260508204250 76 258 5.0 9.0 0.00 0.00 0.00 53 992.8
20260508203516 76 258 5.0 10.0 0.00 0.00 0.00 53 992.8
20260508203016 76 241 4.0 10.0 0.00 0.00 0.00 53 993.0
20260508202516 76 227 6.0 9.0 0.00 0.00 0.00 52 993.0
20260508202014 76 262 5.0 11.0 0.00 0.00 0.00 52 993.2
20260508201515 76 241 6.0 11.0 0.00 0.00 0.00 51 993.2
20260508201014 77 252 6.0 11.0 0.00 0.00 0.00 52 993.3
20260508200746 76 309 2.0 10.0 0.00 0.00 0.00 56 993.3
20260508200017 76 258 9.0 12.0 0.00 0.00 0.00 51 993.3
20260508195513 76 247 10.0 12.0 0.00 0.00 0.00 53 993.4
20260508195014 76 231 6.0 13.0 0.00 0.00 0.00 52 993.5
20260508194514 76 204 6.0 13.0 0.00 0.00 0.00 52 993.5
20260508194014 75 204 8.0 12.0 0.00 0.00 0.00 53 993.7
20260508193513 75 204 8.0 12.0 0.00 0.00 0.00 53 993.8
20260508193013 75 247 7.0 16.0 0.00 0.00 0.00 53 993.9
20260508192744 75 255 9.0 16.0 0.00 0.00 0.00 53 993.9
20260508192013 75 243 6.0 12.0 0.00 0.00 0.00 55 994.0
20260508191512 75 272 5.0 9.0 0.00 0.00 0.00 53 994.1
20260508191243 75 257 5.0 10.0 0.00 0.00 0.00 53 994.1
20260508190512 75 262 6.0 14.0 0.00 0.00 0.00 54 994.2
20260508190021 75 250 7.0 14.0 0.00 0.00 0.00 54 994.3
20260508185744 75 192 7.0 13.0 0.00 0.00 0.00 54 994.2
20260508185012 74 250 7.0 10.0 0.00 0.00 0.00 52 994.4
20260508184742 74 250 7.0 10.0 0.00 0.00 0.00 52 994.4
20260508184013 0 235 6.0 5.0 0.00 0.00 0.00 994.4
20260508183510 75 235 6.0 12.0 0.00 0.00 0.00 53 994.5
20260508183010 75 226 6.0 14.0 0.00 0.00 0.00 53 994.6
20260508182510 74 214 6.0 14.0 0.00 0.00 0.00 52 994.7
20260508182009 74 240 8.0 15.0 0.00 0.00 0.00 55 994.8
20260508181509 74 248 6.0 15.0 0.00 0.00 0.00 53 994.9
20260508181008 74 261 11.0 15.0 0.00 0.00 0.00 55 995.0
20260508180738 74 274 4.0 13.0 0.00 0.00 0.00 55 995.1
20260508175508 73 245 9.0 14.0 0.00 0.00 0.00 56 995.1
20260508175009 73 252 6.0 10.0 0.00 0.00 0.00 56 995.3
20260508174507 73 252 6.0 12.0 0.00 0.00 0.00 56 995.5
20260508174007 73 255 7.0 12.0 0.00 0.00 0.00 56 995.6
20260508173738 73 262 7.0 12.0 0.00 0.00 0.00 56 995.6
20260508173007 73 266 6.0 9.0 0.00 0.00 0.00 57 995.8
20260508172506 73 269 8.0 12.0 0.00 0.00 0.00 57 995.8
20260508172006 73 238 7.0 12.0 0.00 0.00 0.00 57 995.9
20260508171506 72 252 9.0 13.0 0.00 0.00 0.00 56 995.9
20260508171005 72 238 9.0 13.0 0.00 0.00 0.00 56 996.1
20260508170505 72 324 5.0 14.0 0.00 0.00 0.00 59 996.1
20260508170006 72 265 7.0 14.0 0.00 0.00 0.00 60 996.3
20260508165736 72 272 6.0 11.0 0.00 0.00 0.00 62 996.3
20260508165005 72 259 4.0 13.0 0.00 0.00 0.00 61 996.5
20260508164505 72 244 7.0 14.0 0.00 0.00 0.00 62 996.6
20260508164005 71 216 5.0 14.0 0.00 0.00 0.00 62 996.7
20260508163505 71 244 6.0 12.0 0.00 0.00 0.00 62 996.8
20260508163018 71 258 8.0 13.0 0.00 0.00 0.00 62 996.8
20260508162505 71 271 6.0 14.0 0.00 0.00 0.00 62 996.8
20260508162006 70 255 10.0 14.0 0.00 0.00 0.00 61 996.8
20260508161505 70 210 7.0 13.0 0.00 0.00 0.00 61 996.9
20260508161006 70 250 4.0 11.0 0.00 0.00 0.00 61 996.8
20260508160504 70 212 9.0 12.0 0.00 0.00 0.00 61 996.9
20260508160004 70 230 8.0 12.0 0.00 0.00 0.00 61 997.0
20260508155504 69 255 7.0 14.0 0.00 0.00 0.00 61 997.1
20260508155002 69 244 10.0 14.0 0.00 0.00 0.00 62 997.0
20260508154502 69 261 5.0 12.0 0.00 0.00 0.00 62 997.1
20260508154234 69 257 6.0 13.0 0.00 0.00 0.00 63 997.1
20260508153736 69 244 8.0 13.0 0.00 0.00 0.00 64 997.0
20260508153003 68 244 8.0 11.0 0.00 0.00 0.00 64 997.1
20260508152503 67 262 7.0 11.0 0.00 0.00 0.00 66 997.1
20260508152002 67 262 7.0 11.0 0.00 0.00 0.00 66 997.2
20260508151507 67 257 8.0 12.0 0.00 0.00 0.00 68 997.2
20260508151002 67 257 8.0 12.0 0.00 0.00 0.00 68 997.4
20260508150500 67 250 5.0 11.0 0.00 0.00 0.00 69 997.5
20260508150000 66 275 7.0 11.0 0.00 0.00 0.00 68 997.5
20260508145501 66 250 5.0 11.0 0.00 0.00 0.00 70 997.5
20260508145000 65 254 6.0 11.0 0.00 0.00 0.00 70 997.6
20260508144501 64 258 6.0 9.0 0.00 0.00 0.00 74 997.7
20260508144000 64 248 6.0 9.0 0.00 0.00 0.00 74 997.7
20260508143513 63 245 4.0 6.0 0.00 0.00 0.00 78 997.7
20260508143000 62 213 3.0 6.0 0.00 0.00 0.00 78 997.9
20260508142500 62 271 3.0 6.0 0.00 0.00 0.00 80 997.8
20260508141458 59 182 1.0 4.0 0.00 0.00 0.00 82 997.9
20260508140958 59 182 2.0 4.0 0.00 0.00 0.00 84 998.1
20260508140500 58 182 1.0 3.0 0.00 0.00 0.00 85 998.2
20260508135957 57 182 0.0 2.0 0.00 0.00 0.00 87 998.4
20260508135457 57 182 1.0 2.0 0.00 0.00 0.00 90 998.5
20260508134958 56 182 0.0 0.0 0.00 0.00 0.00 89 998.4
20260508134457 55 182 0.0 0.0 0.00 0.00 0.00 90 998.4
20260508134229 54 182 0.0 2.0 0.00 0.00 0.00 90 998.4
20260508133458 53 182 1.0 2.0 0.00 0.00 0.00 91 998.4
20260508132958 0 179 0.0 0.0 0.00 0.00 0.00 998.5
20260508132457 0 0.0 0.0 0.00 0.00 0.00 998.6
20260508132228 0 0.0 0.0 0.00 0.00 0.00 998.6
20260508131459 0 0.0 0.0 0.00 0.00 0.00 998.6
20260508130954 0 0.0 0.0 0.00 0.00 0.00 998.7
20260508130452 48 179 0.0 1.0 0.00 0.00 0.00 96 998.6
20260508125950 48 179 0.0 1.0 0.00 0.00 0.00 96 998.6
20260508125453 47 179 0.0 2.0 0.00 0.00 0.00 95 998.6
20260508124950 47 76 0.0 2.0 0.00 0.00 0.00 95 998.6
20260508124452 47 76 1.0 2.0 0.00 0.00 0.00 95 998.6
20260508123949 46 190 0.0 0.0 0.00 0.00 0.00 96 998.6
20260508123450 45 265 0.0 0.0 0.00 0.00 0.00 95 998.6
20260508122950 45 265 0.0 0.0 0.00 0.00 0.00 95 998.6
20260508122448 0 0.0 0.0 0.00 0.00 0.00 998.7
20260508121949 0 0.0 0.0 0.00 0.00 0.00 998.7
20260508121447 0 0.0 0.0 0.00 0.00 0.00 998.8
20260508120945 0 0.0 0.0 0.00 0.00 0.00 998.7
20260508120444 0 0.0 0.0 0.00 0.00 0.00 998.8
20260508120215 43 265 0.0 1.0 0.00 0.00 0.00 94 998.8
20260508115442 43 265 0.0 2.0 0.00 0.00 0.00 94 998.8